ITY355 LFMN-LIRF

Flight info

Callsign ITY355
Flight time N/A
Altitude 29000
Route SODRI DCT RAPUR DCT RATAP DCT BTA/N0384F280 DCT MOULE DCT XOPTA DCT ELB DCT ELKAP
Aircraft A20N/M-SDE2E3FGHIRWXY/LB1

Departure

Time 2026-05-01 10:15
Airport Nice-Côte d'Azur Airport (LFMN)

Arrival

Time N/A
Airport Rome–Fiumicino Leonardo da Vinci International Airport (LIRF)
Time Latitude Longitude Altitude Speed Heading
2026-05-01 09:31 43.66450 7.21450 22 ft 0 kts 320°
2026-05-01 10:04 43.66449 7.21451 21 ft 1 kts 320°
2026-05-01 10:04 43.66431 7.21473 24 ft 4 kts 313°
2026-05-01 10:04 43.66415 7.21502 24 ft 4 kts 293°
2026-05-01 10:05 43.66411 7.21534 23 ft 3 kts 232°
2026-05-01 10:05 43.66414 7.21538 23 ft 1 kts 225°
2026-05-01 10:08 43.66411 7.21534 23 ft 3 kts 225°
2026-05-01 10:08 43.66365 7.21468 21 ft 17 kts 238°
2026-05-01 10:08 43.66266 7.21321 21 ft 26 kts 224°
2026-05-01 10:09 43.66144 7.21151 21 ft 24 kts 225°
2026-05-01 10:09 43.66028 7.20992 21 ft 25 kts 224°
2026-05-01 10:09 43.65922 7.20848 21 ft 19 kts 223°
2026-05-01 10:09 43.65821 7.20719 22 ft 21 kts 225°
2026-05-01 10:10 43.65721 7.20584 22 ft 20 kts 224°
2026-05-01 10:10 43.65628 7.20453 22 ft 15 kts 225°
2026-05-01 10:10 43.65456 7.20216 22 ft 18 kts 224°
2026-05-01 10:11 43.65347 7.20204 22 ft 18 kts 147°
2026-05-01 10:11 43.65274 7.20301 22 ft 10 kts 135°
2026-05-01 10:11 43.65255 7.20327 22 ft 0 kts 135°
2026-05-01 10:12 43.65251 7.20332 22 ft 4 kts 135°
2026-05-01 10:12 43.65097 7.20467 23 ft 14 kts 201°
2026-05-01 10:13 43.64994 7.20366 22 ft 22 kts 226°
2026-05-01 10:13 43.64901 7.20233 24 ft 18 kts 225°
2026-05-01 10:13 43.64819 7.20132 24 ft 14 kts 195°
2026-05-01 10:14 43.64747 7.20171 22 ft 4 kts 139°
2026-05-01 10:14 43.64703 7.20232 22 ft 13 kts 129°
2026-05-01 10:14 43.64716 7.20309 26 ft 0 kts 45°
2026-05-01 10:15 43.64860 7.20509 22 ft 65 kts 45°
2026-05-01 10:15 43.65334 7.21158 27 ft 123 kts 45°
2026-05-01 10:15 43.66012 7.22110 257 ft 143 kts 57°
2026-05-01 10:15 43.66265 7.23384 832 ft 138 kts 96°
2026-05-01 10:16 43.65813 7.24497 1474 ft 135 kts 133°
2026-05-01 10:16 43.65124 7.25415 1993 ft 145 kts 133°
2026-05-01 10:16 43.63582 7.27812 2776 ft 189 kts 128°
2026-05-01 10:17 43.62711 7.29288 3349 ft 206 kts 127°
2026-05-01 10:17 43.60863 7.32485 4871 ft 220 kts 126°
2026-05-01 10:17 43.59796 7.34004 5872 ft 224 kts 140°
2026-05-01 10:18 43.56869 7.35750 7724 ft 237 kts 156°
2026-05-01 10:18 43.55288 7.36535 8559 ft 245 kts 157°
2026-05-01 10:18 43.53668 7.37352 9452 ft 250 kts 157°
2026-05-01 10:19 43.52013 7.38191 10335 ft 256 kts 157°
2026-05-01 10:19 43.50290 7.39068 10927 ft 274 kts 157°
2026-05-01 10:19 43.48423 7.40019 11375 ft 297 kts 157°
2026-05-01 10:20 43.44248 7.42137 12159 ft 342 kts 157°
2026-05-01 10:20 43.41956 7.43296 12738 ft 355 kts 157°
2026-05-01 10:20 43.39632 7.44467 13711 ft 356 kts 158°
2026-05-01 10:20 43.37299 7.45640 14571 ft 360 kts 157°
2026-05-01 10:21 43.34926 7.46836 15310 ft 365 kts 158°
2026-05-01 10:21 43.30095 7.49258 16677 ft 377 kts 156°
2026-05-01 10:21 43.27612 7.50507 17452 ft 381 kts 156°
2026-05-01 10:22 43.22586 7.53037 18926 ft 389 kts 157°
2026-05-01 10:22 43.17446 7.55611 20128 ft 398 kts 156°
2026-05-01 10:23 43.14842 7.56977 20735 ft 400 kts 152°
2026-05-01 10:23 43.10666 7.61902 21730 ft 402 kts 119°
2026-05-01 10:23 43.09511 7.65356 22348 ft 399 kts 102°
2026-05-01 10:24 43.08607 7.72815 23487 ft 404 kts 94°
2026-05-01 10:24 43.07824 7.80531 24515 ft 413 kts 95°
2026-05-01 10:25 43.06969 7.88361 25498 ft 420 kts 95°
2026-05-01 10:25 43.06073 7.96306 26431 ft 427 kts 95°
2026-05-01 10:26 43.05611 8.00347 26909 ft 431 kts 95°
2026-05-01 10:26 43.05141 8.04416 27350 ft 434 kts 95°
2026-05-01 10:26 43.04189 8.12627 28215 ft 440 kts 95°
2026-05-01 10:27 43.03216 8.20965 29013 ft 447 kts 95°
2026-05-01 10:27 43.02235 8.29329 29289 ft 449 kts 95°
2026-05-01 10:28 43.01681 8.33536 29317 ft 451 kts 100°
2026-05-01 10:28 42.99566 8.41644 29317 ft 457 kts 113°
2026-05-01 10:28 42.98065 8.45482 29317 ft 458 kts 115°
2026-05-01 10:29 42.93551 8.56971 29300 ft 458 kts 115°
2026-05-01 10:30 42.87508 8.72305 29328 ft 462 kts 115°
2026-05-01 10:31 42.81426 8.87616 29274 ft 461 kts 115°
2026-05-01 10:32 42.76840 8.99115 29280 ft 461 kts 115°
2026-05-01 10:33 42.70699 9.14433 29288 ft 463 kts 115°
2026-05-01 10:34 42.66069 9.25929 29309 ft 462 kts 115°
2026-05-01 10:34 42.62977 9.33593 29304 ft 464 kts 115°
2026-05-01 10:35 42.58648 9.45304 29321 ft 457 kts 101°
2026-05-01 10:35 42.58092 9.49502 29321 ft 448 kts 88°
2026-05-01 10:35 42.58220 9.53668 29319 ft 437 kts 75°
2026-05-01 10:36 42.60421 9.65526 29319 ft 433 kts 70°
2026-05-01 10:37 42.61868 9.73456 29322 ft 429 kts 71°
2026-05-01 10:37 42.63911 9.85297 29345 ft 429 kts 71°
2026-05-01 10:38 42.65245 9.93129 29327 ft 425 kts 71°
2026-05-01 10:38 42.66582 10.00961 29322 ft 426 kts 71°
2026-05-01 10:39 42.67900 10.08730 29331 ft 426 kts 71°
2026-05-01 10:39 42.69224 10.16570 29324 ft 426 kts 71°
2026-05-01 10:40 42.70541 10.24416 29323 ft 424 kts 71°
2026-05-01 10:40 42.71847 10.32228 29307 ft 424 kts 71°
2026-05-01 10:41 42.72481 10.36149 29103 ft 425 kts 73°
2026-05-01 10:41 42.72857 10.40156 28831 ft 429 kts 79°
2026-05-01 10:41 42.72729 10.48302 28287 ft 431 kts 86°
2026-05-01 10:42 42.72568 10.52368 28024 ft 429 kts 86°
2026-05-01 10:42 42.72412 10.56412 27760 ft 427 kts 86°
2026-05-01 10:42 42.72192 10.60451 27571 ft 430 kts 91°
2026-05-01 10:42 42.71528 10.64396 27312 ft 438 kts 101°
2026-05-01 10:43 42.70328 10.68241 27050 ft 445 kts 112°
2026-05-01 10:43 42.68711 10.71853 26801 ft 447 kts 116°
2026-05-01 10:43 42.67063 10.75427 26545 ft 445 kts 116°
2026-05-01 10:43 42.65426 10.78988 26295 ft 443 kts 116°
2026-05-01 10:44 42.63795 10.82540 26048 ft 441 kts 116°
2026-05-01 10:44 42.62174 10.86069 25806 ft 440 kts 116°
2026-05-01 10:44 42.60560 10.89579 25557 ft 438 kts 116°
2026-05-01 10:44 42.58948 10.93079 25311 ft 436 kts 116°
2026-05-01 10:45 42.57341 10.96565 25075 ft 435 kts 116°
2026-05-01 10:45 42.55742 11.00030 24837 ft 433 kts 116°
2026-05-01 10:45 42.54141 11.03495 24409 ft 434 kts 116°
2026-05-01 10:45 42.52557 11.06920 23845 ft 433 kts 116°
2026-05-01 10:46 42.50959 11.10369 23196 ft 429 kts 116°
2026-05-01 10:46 42.49381 11.13762 22678 ft 422 kts 116°
2026-05-01 10:46 42.47828 11.17103 22124 ft 417 kts 116°
2026-05-01 10:46 42.46290 11.20411 21568 ft 412 kts 116°
2026-05-01 10:47 42.44903 11.23758 21025 ft 402 kts 108°
2026-05-01 10:47 42.43958 11.27255 20484 ft 391 kts 98°
2026-05-01 10:47 42.43441 11.30815 19973 ft 381 kts 91°
2026-05-01 10:47 42.43057 11.34362 19407 ft 379 kts 90°
2026-05-01 10:48 42.42668 11.37884 18868 ft 375 kts 91°
2026-05-01 10:48 42.42279 11.41362 18306 ft 372 kts 91°
2026-05-01 10:48 42.41892 11.44798 17795 ft 367 kts 91°
2026-05-01 10:48 42.41509 11.48146 17611 ft 353 kts 91°
2026-05-01 10:49 42.41138 11.51357 17475 ft 339 kts 91°
2026-05-01 10:49 42.40762 11.54452 17306 ft 330 kts 95°
2026-05-01 10:49 42.39844 11.57295 16958 ft 342 kts 118°